2023/01/30 00:00:00,100.8,-4.2
2023/01/30 00:10:00,100.6,-4.2
2023/01/30 00:20:00,100.4,-4.4
2023/01/30 00:30:00,100.2,-4.9
2023/01/30 00:40:00,100.1,-5.2
2023/01/30 00:50:00,100.2,-5.5
2023/01/30 01:00:00,100.4,-5.4
2023/01/30 01:10:00,100.5,-5.8
2023/01/30 01:20:00,100.5,-6.0
2023/01/30 01:30:00,100.5,-6.2
2023/01/30 01:40:00,100.3,-6.4
2023/01/30 01:50:00,100.4,-6.7
2023/01/30 02:00:00,100.4,-6.9
2023/01/30 02:10:00,100.4,-6.1
2023/01/30 02:20:00,100.3,-6.0
2023/01/30 02:30:00,100.2,-6.3
2023/01/30 02:40:00,100.1,-6.0
2023/01/30 02:50:00,100.0,-6.2
2023/01/30 03:00:00,99.8,-5.7
2023/01/30 03:10:00,99.7,-5.3
2023/01/30 03:20:00,99.7,-5.6
2023/01/30 03:30:00,99.6,-5.6
2023/01/30 03:40:00,99.5,-5.1
2023/01/30 03:50:00,99.5,-4.9
2023/01/30 04:00:00,99.4,-5.2
2023/01/30 04:10:00,99.5,-5.0
2023/01/30 04:20:00,99.7,-4.8
2023/01/30 04:30:00,100.1,-4.1
2023/01/30 04:40:00,100.1,-4.2
2023/01/30 04:50:00,100.0,-4.1
2023/01/30 05:00:00,99.8,-4.2
2023/01/30 05:10:00,100.0,-4.3
2023/01/30 05:20:00,100.6,-4.1
2023/01/30 05:30:00,101.3,-4.0
2023/01/30 05:40:00,101.4,-3.6
2023/01/30 05:50:00,101.5,-4.1
2023/01/30 06:00:00,101.5,-3.5
2023/01/30 06:10:00,101.8,-3.3
2023/01/30 06:20:00,102.1,-3.4
2023/01/30 06:30:00,102.2,-2.8
2023/01/30 06:40:00,102.4,-3.2
2023/01/30 06:50:00,103.0,-3.0
2023/01/30 07:00:00,103.2,-2.9
2023/01/30 07:10:00,103.0,-3.3
2023/01/30 07:20:00,102.9,-3.3
2023/01/30 07:30:00,102.9,-3.2
2023/01/30 07:40:00,103.0,-3.0
2023/01/30 07:50:00,102.9,-2.8
2023/01/30 08:00:00,102.8,-2.7
2023/01/30 08:10:00,102.7,-2.5
2023/01/30 08:20:00,102.7,-2.4
2023/01/30 08:30:00,102.9,-2.5
2023/01/30 08:40:00,103.0,-2.1
2023/01/30 08:50:00,103.0,-2.4
2023/01/30 09:00:00,103.2,-2.4
2023/01/30 09:10:00,103.7,-2.0
2023/01/30 09:20:00,103.9,-2.5
2023/01/30 09:30:00,104.0,-1.9
2023/01/30 09:40:00,104.0,-2.4
2023/01/30 09:50:00,104.4,-2.1
2023/01/30 10:00:00,105.1,-1.7
2023/01/30 10:10:00,105.6,-1.6
2023/01/30 10:20:00,105.7,-2.2
2023/01/30 10:30:00,105.9,-1.7
2023/01/30 10:40:00,106.1,-1.7
2023/01/30 10:50:00,106.0,-1.9
2023/01/30 11:00:00,106.6,-1.9
2023/01/30 11:10:00,107.0,-2.0
2023/01/30 11:20:00,107.5,-1.9
2023/01/30 11:30:00,107.9,-1.8
2023/01/30 11:40:00,108.4,-1.7
2023/01/30 11:50:00,108.2,-0.7
2023/01/30 12:00:00,108.0,-1.0
2023/01/30 12:10:00,107.9,-0.9
2023/01/30 12:20:00,108.2,-1.4
2023/01/30 12:30:00,108.8,-1.2
2023/01/30 12:40:00,108.8,-1.4
2023/01/30 12:50:00,109.2,-1.2
2023/01/30 13:00:00,109.2,-1.1
2023/01/30 13:10:00,108.8,-0.1
2023/01/30 13:20:00,108.5,-0.8
2023/01/30 13:30:00,109.0,-1.2
2023/01/30 13:40:00,109.4,-1.7
2023/01/30 13:50:00,109.4,-2.2
2023/01/30 14:00:00,109.7,-1.1
2023/01/30 14:10:00,109.7,-0.6
2023/01/30 14:20:00,109.8,-1.2
2023/01/30 14:30:00,109.7,-1.4
2023/01/30 14:40:00,110.3,-2.0
2023/01/30 14:50:00,111.0,-2.7
2023/01/30 15:00:00,111.7,-2.3
2023/01/30 15:10:00,111.9,-2.1
2023/01/30 15:20:00,112.1,-1.7
2023/01/30 15:30:00,112.3,-2.1
2023/01/30 15:40:00,112.7,-2.3
2023/01/30 15:50:00,112.5,-2.3
2023/01/30 16:00:00,112.7,-2.8
2023/01/30 16:10:00,113.1,-2.7
2023/01/30 16:20:00,113.3,-2.8
2023/01/30 16:30:00,113.2,-2.4
2023/01/30 16:40:00,113.2,-2.6
2023/01/30 16:50:00,113.3,-2.4
2023/01/30 17:00:00,113.6,-2.6
2023/01/30 17:10:00,114.2,-2.7
2023/01/30 17:20:00,114.4,-2.5
2023/01/30 17:30:00,114.5,-2.4
2023/01/30 17:40:00,114.6,-2.5
2023/01/30 17:50:00,115.1,-2.9
2023/01/30 18:00:00,115.8,-3.0
2023/01/30 18:10:00,116.3,-2.8
2023/01/30 18:20:00,116.2,-2.8
2023/01/30 18:30:00,115.9,-2.8
2023/01/30 18:40:00,115.8,-2.8
2023/01/30 18:50:00,115.8,-2.7
2023/01/30 19:00:00,115.7,-3.1
2023/01/30 19:10:00,116.2,-3.1
2023/01/30 19:20:00,116.3,-3.2
2023/01/30 19:30:00,116.6,-2.9
2023/01/30 19:40:00,116.8,-3.1
2023/01/30 19:50:00,116.6,-2.8
2023/01/30 20:00:00,116.4,-2.8
2023/01/30 20:10:00,116.4,-2.8
2023/01/30 20:20:00,116.4,-2.8
2023/01/30 20:30:00,116.5,-3.2
2023/01/30 20:40:00,116.6,-2.9
2023/01/30 20:50:00,116.9,-3.0
2023/01/30 21:00:00,117.4,-2.8
2023/01/30 21:10:00,117.4,-3.3
2023/01/30 21:20:00,117.5,-3.0
2023/01/30 21:30:00,117.7,-3.1
2023/01/30 21:40:00,118.0,-2.9
2023/01/30 21:50:00,117.9,-2.8
2023/01/30 22:00:00,117.9,-2.7
2023/01/30 22:10:00,117.8,-2.7
2023/01/30 22:20:00,117.5,-2.8
2023/01/30 22:30:00,117.4,-3.0
2023/01/30 22:40:00,117.2,-2.6
2023/01/30 22:50:00,117.4,-2.9
2023/01/30 23:00:00,117.4,-2.7
2023/01/30 23:10:00,117.3,-3.2
2023/01/30 23:20:00,116.9,-3.5
2023/01/30 23:30:00,116.6,-3.5
2023/01/30 23:40:00,116.6,-3.2
2023/01/30 23:50:00,116.6,-2.9
